Wheeling, WV

11:44 AM EST on December 10, 2019 (GMT -0500)
Wheeling-Ohio County

Weather History for KHLG - November, 2019

Change the Weather History Date:

Thursday, November 14, 2019

  Actual Average Record
Temperature  
Mean Temperature 34 °F 44 °F  
Max Temperature 43 °F 52 °F 71 °F (2011)
Min Temperature 25 °F 36 °F 10 °F (1920)
Degree Days  
Heating Degree Days 31 21  
Month to date heating degree days 383 265  
Since 1 July heating degree days 654 739  
Cooling Degree Days 0 0  
Month to date cooling degree days 0 0  
Year to date cooling degree days 986 689  
Moisture  
Dew Point 19 °F    
Average Humidity 55    
Maximum Humidity 70    
Minimum Humidity 39    
Precipitation  
Precipitation 0.00 in 0.10 in 0.77 in (2011)
Month to date precipitation 0.64 1.45  
Year to date precipitation 34.72 33.77  
Sea Level Pressure  
Sea Level Pressure 30.27 in    
Wind  
Wind Speed 7 mph (SSW)    
Max Wind Speed 17 mph    
Max Gust Speed 22 mph    
Visibility 10 miles    
Events      
T = Trace of Precipitation, MM = Missing Value Source: NWS Daily Summary

Daily Weather History Graph

Daily Weather History Graph

Search for Another Location

Airport or City:

Astronomy

Nov. 14, 2019 Rise Set
Actual Time 7:06 AM EST 5:06 PM EST
Civil Twilight 6:37 AM EST 5:35 PM EST
Nautical Twilight 6:04 AM EST 6:08 PM EST
Astronomical Twilight 5:32 AM EST 6:40 PM EST
Moon 6:51 PM EST (11/14) 9:00 AM EST (11/14)
Length of Visible Light 10h 58m
Length of Day
10h 00m
Waning Gibbous, 95% of the Moon is Illuminated
Nov 14
Waning Gibbous
Nov 19
Last Quarter
Nov 26
New
Dec 4
First Quarter
Dec 12
Full

Hourly Weather History & Observations

Time (EST) Temp. Windchill Dew Point Humidity Pressure Visibility Wind Dir Wind Speed Gust Speed Precip Events Conditions
12:53 AM 26.1 °F 20.5 °F 16.0 °F 66% 30.23 in 10.0 mi South 4.6 mph - N/A   Clear
1:53 AM 27.0 °F - 16.0 °F 63% 30.23 in 10.0 mi Calm Calm - N/A   Clear
2:53 AM 26.1 °F 20.5 °F 16.0 °F 66% 30.25 in 10.0 mi SSW 4.6 mph - N/A   Clear
3:53 AM 26.1 °F 19.4 °F 16.0 °F 66% 30.24 in 10.0 mi South 5.8 mph - N/A   Clear
4:53 AM 27.0 °F 20.5 °F 16.0 °F 63% 30.25 in 10.0 mi South 5.8 mph - N/A   Clear
5:53 AM 27.0 °F 19.5 °F 17.1 °F 66% 30.26 in 10.0 mi South 6.9 mph - N/A   Clear
6:53 AM 28.0 °F 20.0 °F 18.0 °F 66% 30.26 in 10.0 mi South 8.1 mph - N/A   Clear
7:53 AM 28.9 °F 20.4 °F 19.0 °F 67% 30.26 in 10.0 mi South 9.2 mph - N/A   Overcast
8:53 AM 30.9 °F 22.2 °F 19.0 °F 61% 30.29 in 10.0 mi SW 10.4 mph - N/A   Partly Cloudy
9:53 AM 32.0 °F 23.0 °F 21.0 °F 64% 30.30 in 10.0 mi SSW 11.5 mph - N/A   Overcast
10:53 AM 34.0 °F 28.0 °F 21.9 °F 61% 30.29 in 10.0 mi SSW 6.9 mph - N/A   Overcast
11:53 AM 37.0 °F 31.0 °F 23.0 °F 57% 30.28 in 10.0 mi West 8.1 mph - N/A   Overcast
12:53 PM 37.9 °F 33.5 °F 23.0 °F 55% 30.25 in 10.0 mi Variable 5.8 mph - N/A   Mostly Cloudy
2:53 PM 42.1 °F 36.1 °F 19.0 °F 40% 30.23 in 10.0 mi SW 10.4 mph - N/A   Partly Cloudy
3:53 PM 41.0 °F 35.8 °F 18.0 °F 40% 30.25 in 10.0 mi SW 8.1 mph - N/A   Clear
4:53 PM 39.0 °F 35.7 °F 18.0 °F 43% 30.26 in 10.0 mi West 4.6 mph - N/A   Clear
5:53 PM 37.9 °F 34.4 °F 18.0 °F 45% 30.28 in 10.0 mi SW 4.6 mph - N/A   Clear
6:53 PM 37.0 °F 33.3 °F 19.0 °F 48% 30.29 in 10.0 mi SW 4.6 mph - N/A   Clear
7:53 PM 36.0 °F 31.1 °F 19.0 °F 50% 30.30 in 10.0 mi SW 5.8 mph - N/A   Clear
8:53 PM 34.0 °F 28.8 °F 19.0 °F 54% 30.30 in 10.0 mi SSW 5.8 mph - N/A   Clear
9:53 PM 34.0 °F 28.0 °F 19.0 °F 54% 30.30 in 10.0 mi SSW 6.9 mph - N/A   Clear
10:53 PM 32.0 °F 28.7 °F 19.9 °F 61% 30.31 in 10.0 mi West 3.5 mph - N/A   Clear
11:53 PM 32.0 °F 25.6 °F 19.9 °F 61% 30.29 in 10.0 mi South 6.9 mph - N/A   Clear